Weather History for Canby, MN

Change the Weather History Date:

Thursday, July 25, 2013

  Actual Average (KMML) Record (KMML)
Temperature  
Mean Temperature 70 °F -  
Max Temperature 77 °F 84 °F 97 °F (1955)
Min Temperature 64 °F 61 °F 48 °F (1991)
Cooling Degree Days 6    
Growing Degree Days 20 (Base 50)    
Moisture  
Dew Point 62 °F    
Average Humidity 72    
Maximum Humidity 83    
Minimum Humidity 56    
Precipitation  
Precipitation 0.00 in - - ()
Sea Level Pressure  
Sea Level Pressure 29.98 in    
Wind  
Wind Speed 6 mph (West)    
Max Wind Speed 12 mph    
Max Gust Speed 16 mph    
Visibility 10 miles    
Events Rain    
Averages and records for this station are not official NWS values.
T = Trace of Precipitation, MM = Missing Value Source: NWS Daily Summary

Daily Weather History Graph

Daily Weather History Graph

Search for Another Location

Airport:

Trip Planner

Search our weather history database for the weather conditions in past years. The results will help you decide how hot, cold, wet, or windy it might be!

Date:

Astronomy

Jul. 25, 2013 Rise Set
Actual Time 6:03 AM CDT 8:58 PM CDT
Civil Twilight 5:29 AM CDT 9:32 PM CDT
Nautical Twilight 4:45 AM CDT 10:16 PM CDT
Astronomical Twilight 3:53 AM CDT 11:07 PM CDT
Moon 10:27 PM CDT (7/25) 9:46 AM CDT (7/25)
Length of Visible Light 16h 03m
Length of Day
14h 54m
Waning Gibbous, 88% of the Moon is Illuminated
Jul 25
Waning Gibbous
Jul 29
Last Quarter
Aug 6
New
Aug 14
First Quarter
Aug 20
Full

Hourly Weather History & Observations

Time (CDT) Temp. Dew Point Humidity Pressure Visibility Wind Dir Wind Speed Gust Speed Precip Events Conditions
12:14 AM 69.8 °F 60.4 °F 72% 29.99 in 10.0 mi SW 9.2 mph - N/A   Mostly Cloudy
12:34 AM 69.1 °F 60.4 °F 74% 29.98 in 10.0 mi SW 8.1 mph - N/A   Mostly Cloudy
12:54 AM 69.1 °F 60.4 °F 74% 29.98 in 10.0 mi SW 8.1 mph - N/A   Scattered Clouds
1:14 AM 69.3 °F 60.8 °F 74% 29.98 in 10.0 mi SW 8.1 mph - N/A   Scattered Clouds
1:34 AM 69.3 °F 60.8 °F 74% 29.97 in 10.0 mi SW 9.2 mph - N/A   Scattered Clouds
1:54 AM 69.3 °F 61.0 °F 75% 29.97 in 10.0 mi SW 9.2 mph - N/A   Clear
2:14 AM 69.4 °F 60.8 °F 74% 29.97 in 10.0 mi WSW 8.1 mph - N/A   Clear
2:34 AM 69.3 °F 60.8 °F 74% 29.98 in 10.0 mi WSW 8.1 mph - N/A   Clear
2:54 AM 68.9 °F 61.0 °F 76% 29.97 in 10.0 mi SW 8.1 mph - N/A   Clear
3:12 AM 68.4 °F 60.8 °F 77% 29.97 in 10.0 mi WSW 6.9 mph - N/A   Clear
3:34 AM 68.2 °F 60.8 °F 77% 29.97 in 10.0 mi WSW 8.1 mph - N/A   Clear
3:54 AM 67.8 °F 60.6 °F 78% 29.97 in 10.0 mi WSW 8.1 mph - N/A   Clear
4:15 AM 67.1 °F 60.6 °F 80% 29.97 in 10.0 mi WSW 5.8 mph - N/A   Clear
4:34 AM 66.6 °F 60.8 °F 82% 29.97 in 10.0 mi WSW 6.9 mph - N/A   Clear
4:54 AM 66.2 °F 60.4 °F 82% 29.98 in 10.0 mi WSW 5.8 mph - N/A   Clear
5:14 AM 65.7 °F 60.3 °F 83% 29.97 in 10.0 mi WSW 6.9 mph - N/A   Clear
5:34 AM 66.0 °F 60.3 °F 82% 29.97 in 10.0 mi WSW 3.5 mph - N/A   Clear
5:54 AM 65.8 °F 60.3 °F 82% 29.97 in 10.0 mi SW 4.6 mph - N/A   Clear
6:14 AM 65.8 °F 60.6 °F 83% 29.97 in 10.0 mi SW 5.8 mph - N/A   Clear
6:34 AM 66.2 °F 60.8 °F 83% 29.97 in 10.0 mi SW 6.9 mph - N/A   Clear
6:54 AM 67.3 °F 61.0 °F 80% 29.97 in 10.0 mi SW 6.9 mph - N/A   Clear
7:14 AM 67.6 °F 61.7 °F 81% 29.97 in 10.0 mi WSW 6.9 mph - N/A   Clear
7:34 AM 68.0 °F 62.1 °F 81% 29.97 in 10.0 mi WSW 8.1 mph - N/A   Clear
7:54 AM 70.5 °F 63.1 °F 77% 29.97 in 10.0 mi WSW 9.2 mph - N/A   Clear
8:14 AM 72.0 °F 63.5 °F 75% 29.97 in 10.0 mi WSW 8.1 mph - N/A   Clear
8:35 AM 71.8 °F 63.7 °F 76% 29.97 in 10.0 mi West 4.6 mph - N/A   Clear
8:54 AM 72.9 °F 64.6 °F 75% 29.97 in 10.0 mi Calm Calm - N/A   Clear
9:14 AM 73.8 °F 64.8 °F 73% 29.97 in 10.0 mi NNW 3.5 mph - N/A   Clear
9:35 AM 74.3 °F 65.8 °F 75% 29.99 in 10.0 mi NNW 4.6 mph - N/A   Clear
9:54 AM 73.2 °F 65.8 °F 78% 29.99 in 10.0 mi North 3.5 mph - N/A   Clear
10:15 AM 72.5 °F 65.8 °F 80% 30.00 in 10.0 mi WNW 4.6 mph - N/A   Scattered Clouds
10:34 AM 72.5 °F 66.4 °F 81% 30.01 in 10.0 mi NNW 5.8 mph - N/A   Scattered Clouds
10:54 AM 72.7 °F 66.0 °F 80% 30.01 in 10.0 mi NNW 4.6 mph - N/A   Mostly Cloudy
11:15 AM 73.2 °F 65.5 °F 77% 30.01 in 10.0 mi NNW 6.9 mph - N/A   Mostly Cloudy
11:34 AM 72.5 °F 64.8 °F 77% 30.01 in 10.0 mi North 6.9 mph - N/A   Clear
11:54 AM 72.5 °F 64.2 °F 75% 30.01 in 10.0 mi North 4.6 mph - N/A   Scattered Clouds
12:14 PM 72.9 °F 61.7 °F 68% 30.01 in 10.0 mi NW 3.5 mph - N/A   Scattered Clouds
12:34 PM 73.4 °F 61.3 °F 66% 30.01 in 10.0 mi NNW 4.6 mph - N/A   Mostly Cloudy
12:54 PM 73.0 °F 62.1 °F 68% 30.02 in 10.0 mi NNW 5.8 mph - N/A   Scattered Clouds
1:15 PM 73.6 °F 60.3 °F 63% 30.01 in 10.0 mi North 5.8 mph - N/A   Clear
1:34 PM 72.9 °F 59.9 °F 64% 30.01 in 10.0 mi NNE 4.6 mph - N/A   Clear
1:54 PM 73.2 °F 59.5 °F 62% 30.01 in 10.0 mi NNE 5.8 mph - N/A   Clear
2:14 PM 73.6 °F 59.9 °F 62% 30.00 in 10.0 mi NNE 4.6 mph - N/A   Clear
2:34 PM 73.8 °F 60.3 °F 63% 30.00 in 10.0 mi Calm Calm - N/A   Clear
2:55 PM 73.9 °F 61.3 °F 65% 29.99 in 10.0 mi ESE 3.5 mph - N/A   Clear
3:14 PM 74.1 °F 61.3 °F 64% 29.99 in 10.0 mi Calm Calm - N/A   Clear
3:34 PM 74.8 °F 61.3 °F 63% 29.99 in 10.0 mi Calm Calm - N/A   Clear
3:55 PM 74.3 °F 61.0 °F 63% 29.98 in 10.0 mi Calm Calm - N/A Rain Light Rain
4:14 PM 75.2 °F 60.3 °F 60% 29.98 in 10.0 mi Calm Calm - N/A   Mostly Cloudy
4:34 PM 75.4 °F 61.0 °F 61% 29.98 in 10.0 mi North 4.6 mph - N/A   Overcast
4:54 PM 76.8 °F 60.1 °F 56% 29.97 in 10.0 mi Calm Calm - N/A   Scattered Clouds
5:14 PM 75.4 °F 59.5 °F 58% 29.98 in 10.0 mi NNW 3.5 mph - N/A   Clear
5:34 PM 75.6 °F 60.6 °F 60% 29.97 in 10.0 mi Calm Calm - N/A   Scattered Clouds
5:54 PM 74.8 °F 61.0 °F 62% 29.97 in 10.0 mi West 3.5 mph - N/A   Scattered Clouds
6:14 PM 76.8 °F 60.3 °F 56% 29.96 in 10.0 mi Calm Calm - N/A   Scattered Clouds
6:35 PM 76.8 °F 61.3 °F 59% 29.95 in 10.0 mi Calm Calm - N/A   Scattered Clouds
6:54 PM 75.7 °F 62.2 °F 63% 29.95 in 10.0 mi Calm Calm - N/A   Scattered Clouds
7:14 PM 76.3 °F 62.8 °F 63% 29.95 in 10.0 mi Calm Calm - N/A   Clear
7:34 PM 76.6 °F 63.1 °F 63% 29.95 in 10.0 mi Calm Calm - N/A   Clear
7:54 PM 75.4 °F 63.0 °F 65% 29.96 in 10.0 mi Calm Calm - N/A   Clear
8:15 PM 73.9 °F 63.7 °F 70% 29.96 in 10.0 mi Calm Calm - N/A   Clear
8:34 PM 73.0 °F 63.7 °F 72% 29.96 in 10.0 mi Calm Calm - N/A   Scattered Clouds
8:54 PM 72.0 °F 63.5 °F 75% 29.96 in 10.0 mi West 5.8 mph - N/A   Mostly Cloudy
9:15 PM 70.7 °F 63.0 °F 76% 29.96 in 10.0 mi West 4.6 mph - N/A   Scattered Clouds
9:34 PM 68.7 °F 62.8 °F 81% 29.96 in 10.0 mi West 4.6 mph - N/A   Scattered Clouds
9:55 PM 68.0 °F 62.2 °F 82% 29.98 in 10.0 mi NW 5.8 mph - N/A   Scattered Clouds
10:15 PM 67.1 °F 61.9 °F 83% 29.99 in 10.0 mi WNW 6.9 mph - N/A   Scattered Clouds
10:34 PM 67.5 °F 61.3 °F 81% 30.00 in 10.0 mi WNW 6.9 mph - N/A   Mostly Cloudy
10:54 PM 68.2 °F 59.9 °F 75% 30.00 in 10.0 mi NW 11.5 mph 16.1 mph N/A   Mostly Cloudy
11:14 PM 68.2 °F 58.1 °F 70% 30.00 in 10.0 mi NW 8.1 mph - N/A   Scattered Clouds
11:34 PM 66.7 °F 57.2 °F 71% 30.00 in 10.0 mi NW 6.9 mph - N/A   Scattered Clouds
11:54 PM 64.4 °F 57.4 °F 78% 30.01 in 10.0 mi NW 5.8 mph - N/A   Clear